Weather History for CWKG - October, 2013

Change the Weather History Date:

Saturday, October 19, 2013

  Actual Average Record
Temperature  
Mean Temperature 52 °F -  
Max Temperature 61 °F - - ()
Min Temperature 42 °F - - ()
Degree Days  
Heating Degree Days 14    
Growing Degree Days 2 (Base 50)    
Moisture  
Dew Point 44 °F    
Average Humidity 82    
Maximum Humidity 99    
Minimum Humidity 41    
Precipitation  
Precipitation 0.00 in - - ()
Sea Level Pressure  
Sea Level Pressure 29.84 in    
Wind  
Wind Speed 4 mph ()    
Max Wind Speed 9 mph    
Max Gust Speed 18 mph    
T = Trace of Precipitation, MM = Missing Value Source: Averaged Metar Reports

Daily Weather History Graph

Daily Weather History Graph

Search for Another Location

Airport or City:

Trip Planner

Search our weather history database for the weather conditions in past years. The results will help you decide how hot, cold, wet, or windy it might be!

Date:

Astronomy

Oct. 19, 2013 Rise Set
Actual Time 7:41 AM ADT 6:29 PM ADT
Civil Twilight 7:11 AM ADT 6:58 PM ADT
Nautical Twilight 6:37 AM ADT 7:32 PM ADT
Astronomical Twilight 6:04 AM ADT 8:06 PM ADT
Moon 6:51 PM ADT (10/19) 8:16 AM ADT (10/19)
Length of Visible Light 11h 47m
Length of Day
10h 48m
Full, 100% of the Moon is Illuminated
Oct 19
Full
Oct 26
Last Quarter
Nov 3
New
Nov 10
First Quarter
Nov 17
Full

Hourly Weather History & Observations

Time (ADT) Temp. Windchill Dew Point Humidity Pressure Visibility Wind Dir Wind Speed Gust Speed Precip Events Conditions
12:00 AM 48.7 °F - 48.0 °F 97% 29.73 in - SW 3.5 mph - N/A   Unknown
1:00 AM 46.9 °F - 46.2 °F 97% 29.73 in - SW 2.3 mph - N/A   Unknown
2:00 AM 46.2 °F 44.1 °F 45.5 °F 97% 29.75 in - SW 4.6 mph - N/A   Unknown
3:00 AM 47 °F - 46 °F 95% 29.76 in - SW 4.6 mph - -  
3:00 AM 46.8 °F - 46.0 °F 97% 29.76 in - SW 4.6 mph - N/A   Unknown
4:00 AM 45.5 °F 44.2 °F 45.0 °F 98% 29.76 in - SW 3.5 mph - N/A   Unknown
5:00 AM 45.3 °F 44.0 °F 44.8 °F 98% 29.78 in - SSW 3.5 mph - N/A   Unknown
6:00 AM 44.8 °F 43.3 °F 44.2 °F 98% 29.80 in - WSW 3.5 mph - N/A   Unknown
7:00 AM 44.2 °F 41.8 °F 43.7 °F 98% 29.82 in - SW 4.6 mph - N/A   Unknown
8:00 AM 42.4 °F 40.7 °F 41.9 °F 98% 29.83 in - WSW 3.5 mph - N/A   Unknown
9:00 AM 45 °F - 45 °F 99% 29.86 in - SW 5.8 mph - -  
9:00 AM 45.3 °F 42.3 °F 44.8 °F 98% 29.86 in - SW 5.8 mph - N/A   Unknown
10:00 AM 50.9 °F - 48.6 °F 92% 29.87 in - WSW 5.8 mph - N/A   Unknown
11:00 AM 54.0 °F - 48.2 °F 81% 29.88 in - WSW 5.8 mph - N/A   Unknown
12:00 PM 56.7 °F - 44.4 °F 64% 29.86 in - WSW 8.1 mph - N/A   Unknown
1:00 PM 58.5 °F - 43.5 °F 58% 29.86 in - WSW 8.1 mph - N/A   Unknown
2:00 PM 60.3 °F - 41.5 °F 50% 29.86 in - SW 9.2 mph 18.4 mph N/A   Unknown
3:00 PM 61 °F - 44 °F 41% 29.86 in - SW 5.8 mph - -  
3:00 PM 61.2 °F - 43.5 °F 52% 29.86 in - SW 5.8 mph - N/A   Unknown
4:00 PM 60.3 °F - 41.2 °F 49% 29.86 in - WSW 6.9 mph - N/A   Unknown
5:00 PM 58.8 °F - 40.6 °F 51% 29.87 in - SW 4.6 mph - N/A   Unknown
6:00 PM 53.2 °F - 41.5 °F 65% 29.90 in - SW 4.6 mph - N/A   Unknown
7:00 PM 49.3 °F - 41.7 °F 75% 29.91 in - SW 3.5 mph - N/A   Unknown
8:00 PM 47.7 °F - 43.0 °F 84% 29.90 in - SSW 3.5 mph - N/A   Unknown
9:00 PM 47 °F - 44 °F 86% 29.87 in - South 1.2 mph - -  
9:00 PM 47.5 °F - 44.1 °F 88% 29.87 in - South 1.2 mph - N/A   Unknown
10:00 PM 46.6 °F - 43.9 °F 90% 29.88 in - South 3.5 mph - N/A   Unknown
11:00 PM 46.6 °F - 44.2 °F 92% 29.88 in - SSW 2.3 mph - N/A   Unknown